contact:dominique.lefevre@mio.osupytheas.fr, maurice.libes@osupytheas.fr, didier.mallarino@osupytheas.fr
Project:EMSO http://www.emso-fr.org/EMSO-France
Depth: 2436.0 m
Title:EMSO Ligure Ouest : Data MII capteur MICROCAT
DateTime_Computer,Latitude,Longitude,Temperature,Conductivity,Pressure,DateTime_Instrument
DateTime_Computer,Latitude,Longitude,degC,S m-1,dbar,DateTime_Instrument
2021-01-09T00:01:30Z,42.805,6.029,13.3040,4.60011,2470.124,2021-1-09T02:02:31Z
2021-01-09T00:04:33Z,42.805,6.029,13.3053,4.60030,2470.1,2021-1-09T02:05:34Z
2021-01-09T00:07:37Z,42.805,6.029,13.3036,4.60029,2470.124,2021-1-09T02:08:38Z
2021-01-09T00:10:40Z,42.805,6.029,13.3029,4.60009,2470.147,2021-1-09T02:11:41Z
2021-01-09T00:13:43Z,42.805,6.029,13.3029,4.60021,2470.147,2021-1-09T02:14:44Z
2021-01-09T00:16:46Z,42.805,6.029,13.3036,4.60021,2470.1,2021-1-09T02:17:47Z
2021-01-09T00:19:49Z,42.805,6.029,13.3039,4.60020,2470.147,2021-1-09T02:20:50Z
2021-01-09T00:22:52Z,42.805,6.029,13.3035,4.60023,2470.147,2021-1-09T02:23:53Z
2021-01-09T00:25:55Z,42.805,6.029,13.3048,4.60016,2470.133,2021-1-09T02:26:56Z
2021-01-09T00:28:58Z,42.805,6.029,13.3048,4.60026,2470.124,2021-1-09T02:29:59Z
2021-01-09T00:32:02Z,42.805,6.029,13.3061,4.60021,2470.087,2021-1-09T02:33:02Z
2021-01-09T00:35:05Z,42.805,6.029,13.3060,4.60025,2470.124,2021-1-09T02:36:06Z
2021-01-09T00:38:08Z,42.805,6.029,13.3048,4.60021,2470.171,2021-1-09T02:39:09Z
2021-01-09T00:41:11Z,42.805,6.029,13.3060,4.60023,2470.171,2021-1-09T02:42:12Z
2021-01-09T00:44:14Z,42.805,6.029,13.3039,4.60029,2470.133,2021-1-09T02:45:15Z
2021-01-09T00:47:17Z,42.805,6.029,13.3050,4.60031,2470.11,2021-1-09T02:48:18Z
2021-01-09T00:50:20Z,42.805,6.029,13.3043,4.60015,2470.171,2021-1-09T02:51:21Z
2021-01-09T00:53:23Z,42.805,6.029,13.3039,4.60031,2470.133,2021-1-09T02:54:24Z
2021-01-09T00:56:26Z,42.805,6.029,13.3055,4.60023,2470.156,2021-1-09T02:57:27Z
2021-01-09T00:59:30Z,42.805,6.029,13.3062,4.60021,2470.171,2021-1-09T03:00:31Z
2021-01-09T01:02:33Z,42.805,6.029,13.3057,4.60033,2470.171,2021-1-09T03:03:34Z
2021-01-09T01:05:36Z,42.805,6.029,13.3043,4.60021,2470.156,2021-1-09T03:06:37Z
2021-01-09T01:08:39Z,42.805,6.029,13.3042,4.60063,2470.194,2021-1-09T03:09:40Z
2021-01-09T01:11:42Z,42.805,6.029,13.3058,4.60015,2470.171,2021-1-09T03:12:43Z
2021-01-09T01:14:45Z,42.805,6.029,13.3050,4.60026,2470.133,2021-1-09T03:15:46Z
2021-01-09T01:17:48Z,42.805,6.029,13.3045,4.60027,2470.171,2021-1-09T03:18:49Z
2021-01-09T01:20:51Z,42.805,6.029,13.3033,4.60041,2470.171,2021-1-09T03:21:52Z
2021-01-09T01:23:55Z,42.805,6.029,13.3057,4.60025,2470.171,2021-1-09T03:24:55Z
2021-01-09T01:26:58Z,42.805,6.029,13.3051,4.60029,2470.171,2021-1-09T03:27:59Z
2021-01-09T01:30:01Z,42.805,6.029,13.3037,4.60026,2470.171,2021-1-09T03:31:02Z
2021-01-09T01:33:04Z,42.805,6.029,13.3040,4.60024,2470.194,2021-1-09T03:34:05Z
2021-01-09T01:36:07Z,42.805,6.029,13.3066,4.60009,2470.18,2021-1-09T03:37:08Z
2021-01-09T01:39:10Z,42.805,6.029,13.3051,4.60023,2470.171,2021-1-09T03:40:11Z
2021-01-09T01:42:13Z,42.805,6.029,13.3059,4.60038,2470.194,2021-1-09T03:43:14Z
2021-01-09T01:45:16Z,42.805,6.029,13.3041,4.60022,2470.18,2021-1-09T03:46:17Z
2021-01-09T01:48:20Z,42.805,6.029,13.3056,4.60023,2470.171,2021-1-09T03:49:20Z
2021-01-09T01:51:23Z,42.805,6.029,13.3058,4.60041,2470.194,2021-1-09T03:52:24Z
2021-01-09T01:54:26Z,42.805,6.029,13.3045,4.60024,2470.171,2021-1-09T03:55:27Z
2021-01-09T01:57:29Z,42.805,6.029,13.3043,4.60024,2470.24,2021-1-09T03:58:30Z
2021-01-09T02:00:32Z,42.805,6.029,13.3047,4.60024,2470.18,2021-1-09T04:01:33Z
2021-01-09T02:03:35Z,42.805,6.029,13.3054,4.60029,2470.194,2021-1-09T04:04:36Z
2021-01-09T02:06:38Z,42.805,6.029,13.3045,4.60026,2470.171,2021-1-09T04:07:39Z
2021-01-09T02:09:41Z,42.805,6.029,13.3019,4.60019,2470.194,2021-1-09T04:10:42Z
2021-01-09T02:12:44Z,42.805,6.029,13.3029,4.60019,2470.203,2021-1-09T04:13:45Z
2021-01-09T02:15:48Z,42.805,6.029,13.3078,4.60023,2470.194,2021-1-09T04:16:49Z
2021-01-09T02:18:51Z,42.805,6.029,13.3054,4.60022,2470.194,2021-1-09T04:19:52Z
2021-01-09T02:21:54Z,42.805,6.029,13.3040,4.60019,2470.194,2021-1-09T04:22:55Z
2021-01-09T02:24:57Z,42.805,6.029,13.3048,4.60022,2470.203,2021-1-09T04:25:58Z
2021-01-09T02:28:00Z,42.805,6.029,13.3063,4.60031,2470.194,2021-1-09T04:29:01Z
2021-01-09T02:31:03Z,42.805,6.029,13.3036,4.60014,2470.203,2021-1-09T04:32:04Z
2021-01-09T02:34:06Z,42.805,6.029,13.3038,4.60016,2470.194,2021-1-09T04:35:07Z
2021-01-09T02:37:09Z,42.805,6.029,13.3026,4.60023,2470.217,2021-1-09T04:38:10Z
2021-01-09T02:40:13Z,42.805,6.029,13.3038,4.60017,2470.217,2021-1-09T04:41:13Z
2021-01-09T02:43:16Z,42.805,6.029,13.3033,4.60024,2470.203,2021-1-09T04:44:17Z
2021-01-09T02:46:19Z,42.805,6.029,13.3033,4.60016,2470.18,2021-1-09T04:47:20Z
2021-01-09T02:49:22Z,42.805,6.029,13.3029,4.60020,2470.24,2021-1-09T04:50:23Z
2021-01-09T02:52:25Z,42.805,6.029,13.3031,4.60026,2470.217,2021-1-09T04:53:26Z
2021-01-09T02:55:28Z,42.805,6.029,13.3061,4.60022,2470.203,2021-1-09T04:56:29Z
2021-01-09T02:58:31Z,42.805,6.029,13.3048,4.60026,2470.217,2021-1-09T04:59:32Z
2021-01-09T03:01:34Z,42.805,6.029,13.3022,4.60021,2470.203,2021-1-09T05:02:35Z
2021-01-09T03:04:38Z,42.805,6.029,13.3026,4.60019,2470.227,2021-1-09T05:05:38Z
2021-01-09T03:07:41Z,42.805,6.029,13.3025,4.60012,2470.18,2021-1-09T05:08:42Z
2021-01-09T03:10:44Z,42.805,6.029,13.3027,4.60026,2470.217,2021-1-09T05:11:45Z
2021-01-09T03:13:47Z,42.805,6.029,13.3031,4.60036,2470.24,2021-1-09T05:14:48Z
2021-01-09T03:16:50Z,42.805,6.029,13.3083,4.60028,2470.203,2021-1-09T05:17:51Z
2021-01-09T03:19:53Z,42.805,6.029,13.3028,4.60029,2470.18,2021-1-09T05:20:54Z
2021-01-09T03:22:56Z,42.805,6.029,13.3039,4.60022,2470.217,2021-1-09T05:23:57Z
2021-01-09T03:25:59Z,42.805,6.029,13.3034,4.60033,2470.203,2021-1-09T05:27:00Z
2021-01-09T03:29:02Z,42.805,6.029,13.3060,4.60028,2470.217,2021-1-09T05:30:03Z
2021-01-09T03:32:06Z,42.805,6.029,13.3015,4.60024,2470.25,2021-1-09T05:33:06Z
2021-01-09T03:35:09Z,42.805,6.029,13.3036,4.60031,2470.203,2021-1-09T05:36:10Z
2021-01-09T03:38:12Z,42.805,6.029,13.3039,4.60031,2470.203,2021-1-09T05:39:13Z
2021-01-09T03:41:15Z,42.805,6.029,13.3026,4.60019,2470.203,2021-1-09T05:42:16Z
2021-01-09T03:44:18Z,42.805,6.029,13.3036,4.60026,2470.24,2021-1-09T05:45:19Z
2021-01-09T03:47:21Z,42.805,6.029,13.3039,4.60024,2470.217,2021-1-09T05:48:22Z
2021-01-09T03:50:24Z,42.805,6.029,13.3006,4.60021,2470.227,2021-1-09T05:51:25Z
2021-01-09T03:53:27Z,42.805,6.029,13.3019,4.60057,2470.227,2021-1-09T05:54:28Z
2021-01-09T03:56:30Z,42.805,6.029,13.3009,4.60022,2470.203,2021-1-09T05:57:31Z
2021-01-09T03:59:34Z,42.805,6.029,13.3016,4.60013,2470.24,2021-1-09T06:00:34Z
2021-01-09T04:02:37Z,42.805,6.029,13.2990,4.60023,2470.203,2021-1-09T06:03:38Z
2021-01-09T04:05:40Z,42.805,6.029,13.3003,4.60025,2470.227,2021-1-09T06:06:41Z
2021-01-09T04:08:43Z,42.805,6.029,13.2979,4.60016,2470.227,2021-1-09T06:09:44Z
2021-01-09T04:11:46Z,42.805,6.029,13.2979,4.60022,2470.217,2021-1-09T06:12:47Z
2021-01-09T04:14:49Z,42.805,6.029,13.2979,4.60014,2470.264,2021-1-09T06:15:50Z
2021-01-09T04:17:52Z,42.805,6.029,13.2977,4.60003,2470.24,2021-1-09T06:18:53Z
2021-01-09T04:20:55Z,42.805,6.029,13.2977,4.60011,2470.24,2021-1-09T06:21:56Z
2021-01-09T04:23:58Z,42.805,6.029,13.2981,4.60014,2470.227,2021-1-09T06:24:59Z
2021-01-09T04:27:02Z,42.805,6.029,13.2974,4.59997,2470.227,2021-1-09T06:28:03Z
2021-01-09T04:30:05Z,42.805,6.029,13.2979,4.59997,2470.264,2021-1-09T06:31:06Z
2021-01-09T04:33:08Z,42.805,6.029,13.2980,4.60001,2470.217,2021-1-09T06:34:09Z
2021-01-09T04:36:11Z,42.805,6.029,13.2982,4.60007,2470.227,2021-1-09T06:37:12Z
2021-01-09T04:39:14Z,42.805,6.029,13.2979,4.60001,2470.24,2021-1-09T06:40:15Z
2021-01-09T04:42:17Z,42.805,6.029,13.2976,4.59998,2470.217,2021-1-09T06:43:18Z
2021-01-09T04:45:20Z,42.805,6.029,13.2979,4.59996,2470.227,2021-1-09T06:46:21Z
2021-01-09T04:48:23Z,42.805,6.029,13.2978,4.59994,2470.203,2021-1-09T06:49:24Z
2021-01-09T04:51:27Z,42.805,6.029,13.2978,4.59994,2470.203,2021-1-09T06:52:27Z
2021-01-09T04:54:30Z,42.805,6.029,13.2977,4.59996,2470.217,2021-1-09T06:55:31Z
2021-01-09T04:57:33Z,42.805,6.029,13.2977,4.59997,2470.217,2021-1-09T06:58:34Z
2021-01-09T05:00:36Z,42.805,6.029,13.2979,4.60001,2470.24,2021-1-09T07:01:37Z
2021-01-09T05:03:39Z,42.805,6.029,13.2976,4.59990,2470.227,2021-1-09T07:04:40Z
2021-01-09T05:06:42Z,42.805,6.029,13.2982,4.59991,2470.25,2021-1-09T07:07:43Z
2021-01-09T05:09:45Z,42.805,6.029,13.2976,4.59988,2470.227,2021-1-09T07:10:46Z
2021-01-09T05:12:48Z,42.805,6.029,13.2982,4.59990,2470.227,2021-1-09T07:13:49Z
2021-01-09T05:15:51Z,42.805,6.029,13.2976,4.59988,2470.227,2021-1-09T07:16:52Z
2021-01-09T05:18:55Z,42.805,6.029,13.2973,4.59987,2470.24,2021-1-09T07:19:56Z
2021-01-09T05:21:58Z,42.805,6.029,13.2976,4.59988,2470.227,2021-1-09T07:22:59Z
2021-01-09T05:25:01Z,42.805,6.029,13.2976,4.59989,2470.264,2021-1-09T07:26:02Z
2021-01-09T05:28:04Z,42.805,6.029,13.2979,4.59991,2470.227,2021-1-09T07:29:05Z
2021-01-09T05:31:07Z,42.805,6.029,13.2976,4.59986,2470.273,2021-1-09T07:32:08Z
2021-01-09T05:34:10Z,42.805,6.029,13.2977,4.59988,2470.217,2021-1-09T07:35:11Z
2021-01-09T05:37:13Z,42.805,6.029,13.2974,4.59987,2470.217,2021-1-09T07:38:14Z
2021-01-09T05:40:16Z,42.805,6.029,13.2978,4.59988,2470.203,2021-1-09T07:41:17Z
2021-01-09T05:43:20Z,42.805,6.029,13.2976,4.59989,2470.227,2021-1-09T07:44:20Z
2021-01-09T05:46:23Z,42.805,6.029,13.2977,4.59990,2470.227,2021-1-09T07:47:24Z
2021-01-09T05:49:26Z,42.805,6.029,13.2977,4.59988,2470.227,2021-1-09T07:50:27Z
2021-01-09T05:52:29Z,42.805,6.029,13.2978,4.59993,2470.227,2021-1-09T07:53:30Z
2021-01-09T05:55:32Z,42.805,6.029,13.2976,4.59988,2470.24,2021-1-09T07:56:33Z
2021-01-09T05:58:35Z,42.805,6.029,13.2980,4.59989,2470.227,2021-1-09T07:59:36Z
2021-01-09T06:01:38Z,42.805,6.029,13.2979,4.59990,2470.227,2021-1-09T08:02:39Z
2021-01-09T06:04:41Z,42.805,6.029,13.2979,4.59989,2470.25,2021-1-09T08:05:42Z
2021-01-09T06:07:44Z,42.805,6.029,13.2974,4.59992,2470.25,2021-1-09T08:08:45Z
2021-01-09T06:10:48Z,42.805,6.029,13.2978,4.59997,2470.24,2021-1-09T08:11:48Z
2021-01-09T06:13:51Z,42.805,6.029,13.2976,4.59991,2470.25,2021-1-09T08:14:52Z
2021-01-09T06:16:54Z,42.805,6.029,13.2977,4.59998,2470.25,2021-1-09T08:17:55Z
2021-01-09T06:19:57Z,42.805,6.029,13.2977,4.59996,2470.24,2021-1-09T08:20:58Z
2021-01-09T06:23:00Z,42.805,6.029,13.2978,4.59988,2470.25,2021-1-09T08:24:01Z
2021-01-09T06:26:03Z,42.805,6.029,13.2977,4.59990,2470.24,2021-1-09T08:27:04Z
2021-01-09T06:29:06Z,42.805,6.029,13.2979,4.59989,2470.227,2021-1-09T08:30:07Z
2021-01-09T06:32:09Z,42.805,6.029,13.2976,4.59998,2470.227,2021-1-09T08:33:10Z
2021-01-09T06:35:13Z,42.805,6.029,13.2978,4.59987,2470.227,2021-1-09T08:36:13Z
2021-01-09T06:38:16Z,42.805,6.029,13.2978,4.59987,2470.227,2021-1-09T08:39:17Z
2021-01-09T06:41:19Z,42.805,6.029,13.2976,4.59999,2470.217,2021-1-09T08:42:20Z
2021-01-09T06:44:22Z,42.805,6.029,13.2974,4.59994,2470.25,2021-1-09T08:45:23Z
2021-01-09T06:47:25Z,42.805,6.029,13.2977,4.59995,2470.203,2021-1-09T08:48:26Z
2021-01-09T06:50:28Z,42.805,6.029,13.2979,4.59988,2470.264,2021-1-09T08:51:29Z
2021-01-09T06:53:31Z,42.805,6.029,13.2978,4.59991,2470.24,2021-1-09T08:54:32Z
2021-01-09T06:56:34Z,42.805,6.029,13.2982,4.59992,2470.24,2021-1-09T08:57:35Z
2021-01-09T06:59:37Z,42.805,6.029,13.2976,4.59984,2470.227,2021-1-09T09:00:38Z
2021-01-09T07:02:41Z,42.805,6.029,13.2978,4.59987,2470.227,2021-1-09T09:03:42Z
2021-01-09T07:05:44Z,42.805,6.029,13.2978,4.59985,2470.227,2021-1-09T09:06:45Z
2021-01-09T07:08:47Z,42.805,6.029,13.2975,4.59998,2470.203,2021-1-09T09:09:48Z
2021-01-09T07:11:50Z,42.805,6.029,13.2977,4.59986,2470.24,2021-1-09T09:12:51Z
2021-01-09T07:14:53Z,42.805,6.029,13.2982,4.59988,2470.231,2021-1-09T09:15:54Z
2021-01-09T07:17:56Z,42.805,6.029,13.2976,4.59996,2470.203,2021-1-09T09:18:57Z
2021-01-09T07:20:59Z,42.805,6.029,13.2977,4.59991,2470.217,2021-1-09T09:22:00Z
2021-01-09T07:24:02Z,42.805,6.029,13.2977,4.59995,2470.24,2021-1-09T09:25:03Z
2021-01-09T07:27:06Z,42.805,6.029,13.2976,4.59987,2470.203,2021-1-09T09:28:06Z
2021-01-09T07:30:09Z,42.805,6.029,13.2979,4.59988,2470.227,2021-1-09T09:31:10Z
2021-01-09T07:33:12Z,42.805,6.029,13.2976,4.59999,2470.227,2021-1-09T09:34:13Z
2021-01-09T07:36:15Z,42.805,6.029,13.2978,4.59996,2470.217,2021-1-09T09:37:16Z
2021-01-09T07:39:18Z,42.805,6.029,13.2977,4.59994,2470.24,2021-1-09T09:40:19Z
2021-01-09T07:42:21Z,42.805,6.029,13.2980,4.59995,2470.24,2021-1-09T09:43:22Z
2021-01-09T07:45:24Z,42.805,6.029,13.2974,4.59988,2470.217,2021-1-09T09:46:25Z
2021-01-09T07:48:27Z,42.805,6.029,13.2981,4.59991,2470.18,2021-1-09T09:49:28Z
2021-01-09T07:51:30Z,42.805,6.029,13.2976,4.59991,2470.194,2021-1-09T09:52:31Z
2021-01-09T07:54:34Z,42.805,6.029,13.2979,4.59988,2470.24,2021-1-09T09:55:35Z
2021-01-09T07:57:37Z,42.805,6.029,13.2973,4.59986,2470.217,2021-1-09T09:58:38Z
2021-01-09T08:00:40Z,42.805,6.029,13.2976,4.59994,2470.217,2021-1-09T10:01:41Z
2021-01-09T08:03:43Z,42.805,6.029,13.2975,4.59991,2470.203,2021-1-09T10:04:44Z
2021-01-09T08:06:46Z,42.805,6.029,13.2978,4.59994,2470.194,2021-1-09T10:07:47Z
2021-01-09T08:09:49Z,42.805,6.029,13.2976,4.59984,2470.227,2021-1-09T10:10:50Z
2021-01-09T08:12:52Z,42.805,6.029,13.2981,4.59982,2470.171,2021-1-09T10:13:53Z
2021-01-09T08:15:55Z,42.805,6.029,13.2979,4.59994,2470.18,2021-1-09T10:16:56Z
2021-01-09T08:18:59Z,42.805,6.029,13.2980,4.59986,2470.194,2021-1-09T10:20:00Z
2021-01-09T08:22:02Z,42.805,6.029,13.2980,4.59993,2470.203,2021-1-09T10:23:03Z
2021-01-09T08:25:05Z,42.805,6.029,13.2985,4.59999,2470.189,2021-1-09T10:26:06Z
2021-01-09T08:28:08Z,42.805,6.029,13.2979,4.59989,2470.171,2021-1-09T10:29:09Z
2021-01-09T08:31:11Z,42.805,6.029,13.2978,4.59988,2470.217,2021-1-09T10:32:12Z
2021-01-09T08:34:14Z,42.805,6.029,13.2989,4.59989,2470.194,2021-1-09T10:35:15Z
2021-01-09T08:37:17Z,42.805,6.029,13.2984,4.59996,2470.194,2021-1-09T10:38:18Z
2021-01-09T08:40:20Z,42.805,6.029,13.2982,4.59991,2470.203,2021-1-09T10:41:21Z
2021-01-09T08:43:24Z,42.805,6.029,13.2983,4.59990,2470.171,2021-1-09T10:44:24Z
2021-01-09T08:46:27Z,42.805,6.029,13.2976,4.60005,2470.194,2021-1-09T10:47:28Z
2021-01-09T08:49:30Z,42.805,6.029,13.2980,4.59987,2470.194,2021-1-09T10:50:31Z
2021-01-09T08:52:33Z,42.805,6.029,13.2979,4.59987,2470.194,2021-1-09T10:53:34Z
2021-01-09T08:55:36Z,42.805,6.029,13.2981,4.59998,2470.194,2021-1-09T10:56:37Z
2021-01-09T08:58:39Z,42.805,6.029,13.2982,4.59986,2470.18,2021-1-09T10:59:40Z
2021-01-09T09:01:42Z,42.805,6.029,13.2984,4.59987,2470.217,2021-1-09T11:02:43Z
2021-01-09T09:04:45Z,42.805,6.029,13.2977,4.59986,2470.143,2021-1-09T11:05:46Z
2021-01-09T09:07:49Z,42.805,6.029,13.2979,4.59987,2470.18,2021-1-09T11:08:49Z
2021-01-09T09:10:52Z,42.805,6.029,13.2981,4.59986,2470.18,2021-1-09T11:11:53Z
2021-01-09T09:13:55Z,42.805,6.029,13.2980,4.59984,2470.171,2021-1-09T11:14:56Z
2021-01-09T09:16:58Z,42.805,6.029,13.2982,4.59989,2470.171,2021-1-09T11:17:59Z
2021-01-09T09:20:01Z,42.805,6.029,13.2982,4.59985,2470.156,2021-1-09T11:21:02Z
2021-01-09T09:23:04Z,42.805,6.029,13.2977,4.59983,2470.194,2021-1-09T11:24:05Z
2021-01-09T09:26:07Z,42.805,6.029,13.2981,4.59983,2470.156,2021-1-09T11:27:08Z
2021-01-09T09:29:10Z,42.805,6.029,13.2977,4.59988,2470.171,2021-1-09T11:30:11Z
2021-01-09T09:32:14Z,42.805,6.029,13.2974,4.59985,2470.194,2021-1-09T11:33:14Z
2021-01-09T09:35:17Z,42.805,6.029,13.2978,4.59989,2470.18,2021-1-09T11:36:18Z
2021-01-09T09:38:20Z,42.805,6.029,13.2974,4.59983,2470.156,2021-1-09T11:39:21Z
2021-01-09T09:41:23Z,42.805,6.029,13.2976,4.59986,2470.171,2021-1-09T11:42:24Z
2021-01-09T09:44:26Z,42.805,6.029,13.2982,4.59987,2470.156,2021-1-09T11:45:27Z
2021-01-09T09:47:29Z,42.805,6.029,13.2978,4.59988,2470.156,2021-1-09T11:48:30Z
2021-01-09T09:50:32Z,42.805,6.029,13.2979,4.59982,2470.194,2021-1-09T11:51:33Z
2021-01-09T09:53:35Z,42.805,6.029,13.2976,4.59984,2470.171,2021-1-09T11:54:36Z
2021-01-09T09:56:39Z,42.805,6.029,13.2979,4.59986,2470.171,2021-1-09T11:57:39Z
2021-01-09T09:59:42Z,42.805,6.029,13.2977,4.59995,2470.156,2021-1-09T12:00:43Z
2021-01-09T10:02:45Z,42.805,6.029,13.2979,4.59983,2470.194,2021-1-09T12:03:46Z
2021-01-09T10:05:48Z,42.805,6.029,13.2976,4.59983,2470.156,2021-1-09T12:06:49Z
2021-01-09T10:08:51Z,42.805,6.029,13.2975,4.59983,2470.156,2021-1-09T12:09:52Z
2021-01-09T10:11:54Z,42.805,6.029,13.2976,4.59987,2470.18,2021-1-09T12:12:55Z
2021-01-09T10:14:57Z,42.805,6.029,13.2976,4.59986,2470.194,2021-1-09T12:15:58Z
2021-01-09T10:18:00Z,42.805,6.029,13.2976,4.59986,2470.166,2021-1-09T12:19:01Z
2021-01-09T10:21:03Z,42.805,6.029,13.2979,4.59987,2470.18,2021-1-09T12:22:04Z
2021-01-09T10:24:07Z,42.805,6.029,13.2977,4.59988,2470.194,2021-1-09T12:25:08Z
2021-01-09T10:27:10Z,42.805,6.029,13.2979,4.59984,2470.18,2021-1-09T12:28:11Z
2021-01-09T10:30:13Z,42.805,6.029,13.2976,4.59982,2470.18,2021-1-09T12:31:14Z
2021-01-09T10:33:16Z,42.805,6.029,13.2976,4.59986,2470.18,2021-1-09T12:34:17Z
2021-01-09T10:36:19Z,42.805,6.029,13.2979,4.59985,2470.18,2021-1-09T12:37:20Z
2021-01-09T10:39:22Z,42.805,6.029,13.2976,4.59984,2470.171,2021-1-09T12:40:23Z
2021-01-09T10:42:25Z,42.805,6.029,13.2979,4.59987,2470.194,2021-1-09T12:43:26Z
2021-01-09T10:45:28Z,42.805,6.029,13.2976,4.59987,2470.203,2021-1-09T12:46:29Z
2021-01-09T10:48:32Z,42.805,6.029,13.2976,4.59990,2470.18,2021-1-09T12:49:33Z
2021-01-09T10:51:35Z,42.805,6.029,13.2977,4.59986,2470.156,2021-1-09T12:52:36Z
2021-01-09T10:54:38Z,42.805,6.029,13.2977,4.59991,2470.18,2021-1-09T12:55:39Z
2021-01-09T10:57:41Z,42.805,6.029,13.2979,4.59988,2470.156,2021-1-09T12:58:42Z
2021-01-09T11:00:44Z,42.805,6.029,13.2979,4.59987,2470.156,2021-1-09T13:01:45Z
2021-01-09T11:03:47Z,42.805,6.029,13.2974,4.59988,2470.194,2021-1-09T13:04:48Z
2021-01-09T11:06:50Z,42.805,6.029,13.2982,4.59989,2470.217,2021-1-09T13:07:51Z
2021-01-09T11:09:53Z,42.805,6.029,13.2978,4.59990,2470.156,2021-1-09T13:10:54Z
2021-01-09T11:12:57Z,42.805,6.029,13.2979,4.59988,2470.171,2021-1-09T13:13:58Z
2021-01-09T11:16:00Z,42.805,6.029,13.2978,4.59991,2470.171,2021-1-09T13:17:01Z
2021-01-09T11:19:03Z,42.805,6.029,13.2978,4.59992,2470.194,2021-1-09T13:20:04Z
2021-01-09T11:22:06Z,42.805,6.029,13.2979,4.59991,2470.147,2021-1-09T13:23:07Z
2021-01-09T11:25:09Z,42.805,6.029,13.2976,4.60000,2470.194,2021-1-09T13:26:10Z
2021-01-09T11:28:12Z,42.805,6.029,13.2979,4.60024,2470.18,2021-1-09T13:29:13Z
2021-01-09T11:31:15Z,42.805,6.029,13.2979,4.60019,2470.18,2021-1-09T13:32:16Z
2021-01-09T11:34:18Z,42.805,6.029,13.2979,4.59994,2470.18,2021-1-09T13:35:19Z
2021-01-09T11:37:22Z,42.805,6.029,13.2979,4.59987,2470.203,2021-1-09T13:38:22Z
2021-01-09T11:40:25Z,42.805,6.029,13.2978,4.60019,2470.194,2021-1-09T13:41:26Z
2021-01-09T11:43:28Z,42.805,6.029,13.2976,4.60024,2470.203,2021-1-09T13:44:29Z
2021-01-09T11:46:31Z,42.805,6.029,13.2977,4.60009,2470.18,2021-1-09T13:47:32Z
2021-01-09T11:49:34Z,42.805,6.029,13.2980,4.59987,2470.217,2021-1-09T13:50:35Z
2021-01-09T11:52:37Z,42.805,6.029,13.2976,4.59992,2470.194,2021-1-09T13:53:38Z
2021-01-09T11:55:40Z,42.805,6.029,13.2976,4.59991,2470.18,2021-1-09T13:56:41Z
2021-01-09T11:58:43Z,42.805,6.029,13.2975,4.60001,2470.18,2021-1-09T13:59:44Z
2021-01-09T12:01:47Z,42.805,6.029,13.3006,4.60039,2470.18,2021-1-09T14:02:48Z
2021-01-09T12:04:50Z,42.805,6.029,13.2982,4.60017,2470.18,2021-1-09T14:05:51Z
2021-01-09T12:07:53Z,42.805,6.029,13.2979,4.59994,2470.217,2021-1-09T14:08:54Z
2021-01-09T12:10:56Z,42.805,6.029,13.2982,4.60003,2470.203,2021-1-09T14:11:57Z
2021-01-09T12:13:59Z,42.805,6.029,13.2980,4.60001,2470.18,2021-1-09T14:15:00Z
2021-01-09T12:17:02Z,42.805,6.029,13.2975,4.59994,2470.156,2021-1-09T14:18:03Z
2021-01-09T12:20:05Z,42.805,6.029,13.2979,4.60006,2470.203,2021-1-09T14:21:06Z
2021-01-09T12:23:08Z,42.805,6.029,13.2974,4.60033,2470.217,2021-1-09T14:24:09Z
2021-01-09T12:26:12Z,42.805,6.029,13.2979,4.60017,2470.217,2021-1-09T14:27:12Z
2021-01-09T12:29:15Z,42.805,6.029,13.2979,4.60001,2470.217,2021-1-09T14:30:16Z
2021-01-09T12:32:18Z,42.805,6.029,13.2979,4.60013,2470.203,2021-1-09T14:33:19Z
2021-01-09T12:35:21Z,42.805,6.029,13.2976,4.59998,2470.227,2021-1-09T14:36:22Z
2021-01-09T12:38:24Z,42.805,6.029,13.2982,4.60066,2470.217,2021-1-09T14:39:25Z
2021-01-09T12:41:27Z,42.805,6.029,13.3040,4.60072,2470.217,2021-1-09T14:42:28Z
2021-01-09T12:44:30Z,42.805,6.029,13.2995,4.60005,2470.217,2021-1-09T14:45:31Z
2021-01-09T12:47:33Z,42.805,6.029,13.3031,4.60051,2470.18,2021-1-09T14:48:34Z
2021-01-09T12:50:37Z,42.805,6.029,13.3026,4.60040,2470.203,2021-1-09T14:51:37Z
2021-01-09T12:53:40Z,42.805,6.029,13.3017,4.60021,2470.203,2021-1-09T14:54:41Z
2021-01-09T12:56:43Z,42.805,6.029,13.3051,4.60047,2470.24,2021-1-09T14:57:44Z
2021-01-09T12:59:46Z,42.805,6.029,13.3079,4.60056,2470.203,2021-1-09T15:00:47Z
2021-01-09T13:02:49Z,42.805,6.029,13.3093,4.60005,2470.24,2021-1-09T15:03:50Z
2021-01-09T13:05:52Z,42.805,6.029,13.3041,4.60019,2470.24,2021-1-09T15:06:53Z
2021-01-09T13:08:55Z,42.805,6.029,13.3034,4.60021,2470.217,2021-1-09T15:09:56Z
2021-01-09T13:11:58Z,42.805,6.029,13.2990,4.60028,2470.24,2021-1-09T15:12:59Z
2021-01-09T13:15:01Z,42.805,6.029,13.2990,4.60009,2470.24,2021-1-09T15:16:02Z
2021-01-09T13:18:05Z,42.805,6.029,13.2988,4.60049,2470.24,2021-1-09T15:19:06Z
2021-01-09T13:21:08Z,42.805,6.029,13.2990,4.60048,2470.264,2021-1-09T15:22:09Z
2021-01-09T13:24:11Z,42.805,6.029,13.2986,4.60087,2470.24,2021-1-09T15:25:12Z
2021-01-09T13:27:14Z,42.805,6.029,13.2994,4.60093,2470.25,2021-1-09T15:28:15Z
2021-01-09T13:30:17Z,42.805,6.029,13.3073,4.60077,2470.25,2021-1-09T15:31:18Z
2021-01-09T13:33:20Z,42.805,6.029,13.2994,4.60077,2470.264,2021-1-09T15:34:21Z
2021-01-09T13:36:23Z,42.805,6.029,13.2985,4.60066,2470.227,2021-1-09T15:37:24Z
2021-01-09T13:39:26Z,42.805,6.029,13.2982,4.60047,2470.24,2021-1-09T15:40:27Z
2021-01-09T13:42:30Z,42.805,6.029,13.3000,4.60101,2470.24,2021-1-09T15:43:31Z
2021-01-09T13:45:33Z,42.805,6.029,13.2983,4.60091,2470.227,2021-1-09T15:46:34Z
2021-01-09T13:48:36Z,42.805,6.029,13.2980,4.60092,2470.25,2021-1-09T15:49:37Z
2021-01-09T13:51:39Z,42.805,6.029,13.2982,4.60097,2470.264,2021-1-09T15:52:40Z
2021-01-09T13:54:42Z,42.805,6.029,13.2978,4.60099,2470.227,2021-1-09T15:55:43Z
2021-01-09T13:57:45Z,42.805,6.029,13.2976,4.60070,2470.264,2021-1-09T15:58:46Z
2021-01-09T14:00:48Z,42.805,6.029,13.2979,4.60087,2470.217,2021-1-09T16:01:49Z
2021-01-09T14:03:51Z,42.805,6.029,13.2980,4.60079,2470.273,2021-1-09T16:04:52Z
2021-01-09T14:06:55Z,42.805,6.029,13.2976,4.60067,2470.25,2021-1-09T16:07:56Z
2021-01-09T14:09:58Z,42.805,6.029,13.2981,4.60059,2470.264,2021-1-09T16:10:59Z
2021-01-09T14:13:01Z,42.805,6.029,13.2979,4.60066,2470.264,2021-1-09T16:14:02Z
2021-01-09T14:16:04Z,42.805,6.029,13.2976,4.60044,2470.227,2021-1-09T16:17:05Z
2021-01-09T14:19:07Z,42.805,6.029,13.2976,4.60046,2470.25,2021-1-09T16:20:08Z
2021-01-09T14:22:10Z,42.805,6.029,13.2976,4.60057,2470.287,2021-1-09T16:23:11Z
2021-01-09T14:25:13Z,42.805,6.029,13.2976,4.60067,2470.31,2021-1-09T16:26:14Z
2021-01-09T14:28:16Z,42.805,6.029,13.2975,4.60069,2470.287,2021-1-09T16:29:17Z
2021-01-09T14:31:20Z,42.805,6.029,13.2979,4.60078,2470.273,2021-1-09T16:32:20Z
2021-01-09T14:34:23Z,42.805,6.029,13.2978,4.60070,2470.273,2021-1-09T16:35:24Z
2021-01-09T14:37:26Z,42.805,6.029,13.2973,4.60049,2470.32,2021-1-09T16:38:27Z
2021-01-09T14:40:29Z,42.805,6.029,13.2978,4.60078,2470.273,2021-1-09T16:41:30Z
2021-01-09T14:43:32Z,42.805,6.029,13.2979,4.60105,2470.297,2021-1-09T16:44:33Z
2021-01-09T14:46:35Z,42.805,6.029,13.2978,4.60103,2470.273,2021-1-09T16:47:36Z
2021-01-09T14:49:38Z,42.805,6.029,13.2974,4.60089,2470.297,2021-1-09T16:50:39Z
2021-01-09T14:52:41Z,42.805,6.029,13.2979,4.60112,2470.287,2021-1-09T16:53:42Z
2021-01-09T14:55:45Z,42.805,6.029,13.2976,4.60075,2470.273,2021-1-09T16:56:45Z
2021-01-09T14:58:48Z,42.805,6.029,13.2974,4.60074,2470.31,2021-1-09T16:59:49Z
2021-01-09T15:01:51Z,42.805,6.029,13.2979,4.60101,2470.287,2021-1-09T17:02:52Z
2021-01-09T15:04:54Z,42.805,6.029,13.2988,4.60050,2470.273,2021-1-09T17:05:55Z
2021-01-09T15:07:57Z,42.805,6.029,13.3029,4.60066,2470.273,2021-1-09T17:08:58Z
2021-01-09T15:11:00Z,42.805,6.029,13.3024,4.60071,2470.31,2021-1-09T17:12:01Z